FLOCK 2E'-5

Last updated on Thu Jun 28 2018 00:15:06 GMT+0000 (Coordinated Universal Time)

1 41567U 98067JR 18178.40169972 .11398691 12446-4 92239-3 0 9993 2 41567 51.6189 248.8124 0007910 305.1771 54.8513 16.38988334118767

Satellite not in orbit

FLOCK 2E'-5